Time,TemperatureF,DewpointF,PressureIn,WindDirection,WindDirectionDegrees,WindSpeedMPH,WindSpeedGustMPH,Humidity,HourlyPrecipIn,Conditions,Clouds,dailyrainin,SoftwareType,DateUTC
2013-05-01 00:00:00,30.1,18.2,30.19,NNE,23,1.3,1.3,61,0.00,,,0.00,WUHU216HW,2013-05-01 06:00:00,
2013-05-01 00:05:00,30.1,18.2,30.19,NNE,23,1.1,1.3,61,0.00,,,0.00,WUHU216HW,2013-05-01 06:05:00,
2013-05-01 00:30:00,29.0,18.3,30.21,NE,45,2.7,2.7,64,0.00,,,0.00,WUHU216HW,2013-05-01 06:30:00,
2013-05-01 00:35:00,29.0,18.3,30.21,NE,45,2.7,2.7,64,0.00,,,0.00,WUHU216HW,2013-05-01 06:35:00,
2013-05-01 00:40:00,29.0,18.3,30.21,NE,45,2.7,2.7,64,0.00,,,0.00,WUHU216HW,2013-05-01 06:40:00,
2013-05-01 01:00:00,28.4,17.5,30.21,NNE,23,3.4,3.4,63,0.00,,,0.00,WUHU216HW,2013-05-01 07:00:00,
2013-05-01 01:05:00,28.4,17.5,30.21,NNE,23,4.0,4.0,63,0.00,,,0.00,WUHU216HW,2013-05-01 07:05:00,
2013-05-01 01:10:00,28.4,17.5,30.21,NNE,23,4.0,4.0,63,0.00,,,0.00,WUHU216HW,2013-05-01 07:10:00,
2013-05-01 01:30:00,27.0,14.9,30.22,ESE,113,1.8,1.8,60,0.00,,,0.00,WUHU216HW,2013-05-01 07:30:00,
2013-05-01 01:35:00,26.8,14.8,30.22,ESE,113,1.1,1.8,60,0.00,,,0.00,WUHU216HW,2013-05-01 07:35:00,
2013-05-01 01:40:00,26.8,14.8,30.22,ESE,113,1.1,1.8,60,0.00,,,0.00,WUHU216HW,2013-05-01 07:40:00,
2013-05-01 02:00:00,25.6,14.0,30.23,East,90,0.0,0.0,61,0.00,,,0.00,WUHU216HW,2013-05-01 08:00:00,
2013-05-01 02:05:00,25.6,14.0,30.23,East,90,0.0,0.0,61,0.00,,,0.00,WUHU216HW,2013-05-01 08:05:00,
2013-05-01 02:10:00,25.6,14.0,30.23,East,90,0.0,0.0,61,0.00,,,0.00,WUHU216HW,2013-05-01 08:10:00,
2013-05-01 02:30:00,24.3,13.2,30.24,ESE,113,1.1,1.1,62,0.00,,,0.00,WUHU216HW,2013-05-01 08:30:00,
2013-05-01 02:35:00,24.3,13.2,30.24,ESE,113,1.1,1.1,62,0.00,,,0.00,WUHU216HW,2013-05-01 08:35:00,
2013-05-01 02:40:00,24.3,13.2,30.24,ESE,113,1.1,1.1,62,0.00,,,0.00,WUHU216HW,2013-05-01 08:40:00,
2013-05-01 03:00:00,24.1,13.7,30.25,ESE,113,0.7,0.7,64,0.00,,,0.00,WUHU216HW,2013-05-01 09:00:00,
2013-05-01 03:05:00,24.1,13.7,30.25,ESE,113,0.7,0.7,64,0.00,,,0.00,WUHU216HW,2013-05-01 09:05:00,
2013-05-01 03:10:00,24.1,13.7,30.25,ESE,113,0.7,0.7,64,0.00,,,0.00,WUHU216HW,2013-05-01 09:10:00,
2013-05-01 03:30:00,24.1,15.4,30.26,North,0,1.1,1.1,69,0.00,,,0.00,WUHU216HW,2013-05-01 09:30:00,
2013-05-01 03:35:00,24.1,15.4,30.26,North,0,1.1,1.1,69,0.00,,,0.00,WUHU216HW,2013-05-01 09:35:00,
2013-05-01 03:40:00,24.1,15.4,30.26,North,0,1.1,1.1,69,0.00,,,0.00,WUHU216HW,2013-05-01 09:40:00,
2013-05-01 04:00:00,24.3,15.2,30.27,ENE,68,0.0,0.0,68,0.00,,,0.00,WUHU216HW,2013-05-01 10:00:00,
2013-05-01 04:05:00,24.3,14.9,30.27,ENE,68,0.0,0.0,67,0.00,,,0.00,WUHU216HW,2013-05-01 10:05:00,
2013-05-01 04:10:00,24.3,14.9,30.27,ENE,68,0.0,0.0,67,0.00,,,0.00,WUHU216HW,2013-05-01 10:10:00,
2013-05-01 04:30:00,24.7,15.2,30.28,NE,45,0.0,0.0,67,0.00,,,0.00,WUHU216HW,2013-05-01 10:30:00,
2013-05-01 04:35:00,24.7,15.2,30.28,NE,45,0.0,0.0,67,0.00,,,0.00,WUHU216HW,2013-05-01 10:35:00,
2013-05-01 04:40:00,24.7,15.2,30.28,NE,45,0.0,0.0,67,0.00,,,0.00,WUHU216HW,2013-05-01 10:40:00,
2013-05-01 05:00:00,23.8,14.7,30.29,NE,45,3.1,3.1,68,0.00,,,0.00,WUHU216HW,2013-05-01 11:00:00,
2013-05-01 05:05:00,23.8,14.7,30.29,NE,45,2.5,3.1,68,0.00,,,0.00,WUHU216HW,2013-05-01 11:05:00,
2013-05-01 05:10:00,23.8,14.7,30.29,NE,45,2.5,2.5,68,0.00,,,0.00,WUHU216HW,2013-05-01 11:10:00,
2013-05-01 05:30:00,23.6,14.9,30.30,East,90,2.2,2.2,69,0.00,,,0.00,WUHU216HW,2013-05-01 11:30:00,
2013-05-01 05:35:00,23.6,14.9,30.30,East,90,2.5,2.5,69,0.00,,,0.00,WUHU216HW,2013-05-01 11:35:00,
2013-05-01 05:40:00,23.6,14.9,30.30,East,90,2.5,2.5,69,0.00,,,0.00,WUHU216HW,2013-05-01 11:40:00,
2013-05-01 06:00:00,22.9,14.2,30.32,NE,45,1.1,1.1,69,0.00,,,0.00,WUHU216HW,2013-05-01 12:00:00,
2013-05-01 06:05:00,22.9,14.2,30.32,ESE,113,1.6,1.6,69,0.00,,,0.00,WUHU216HW,2013-05-01 12:05:00,
2013-05-01 06:10:00,22.9,14.2,30.32,ESE,113,1.6,1.6,69,0.00,,,0.00,WUHU216HW,2013-05-01 12:10:00,
2013-05-01 06:30:00,22.5,14.9,30.34,NE,45,4.3,4.3,72,0.00,,,0.00,WUHU216HW,2013-05-01 12:30:00,
2013-05-01 06:35:00,22.5,14.9,30.34,NE,45,4.3,4.3,72,0.00,,,0.00,WUHU216HW,2013-05-01 12:35:00,
2013-05-01 07:00:00,23.9,16.2,30.35,NE,45,3.4,3.4,72,0.00,,,0.00,WUHU216HW,2013-05-01 13:00:00,
2013-05-01 07:05:00,24.1,16.4,30.35,NNE,23,3.1,3.4,72,0.00,,,0.00,WUHU216HW,2013-05-01 13:05:00,
2013-05-01 07:30:00,28.6,20.2,30.36,ENE,68,2.7,2.7,70,0.00,,,0.00,WUHU216HW,2013-05-01 13:30:00,
2013-05-01 07:35:00,28.6,20.2,30.36,NE,45,2.5,2.9,70,0.00,,,0.00,WUHU216HW,2013-05-01 13:35:00,
2013-05-01 07:40:00,28.6,20.2,30.36,NE,45,2.5,2.9,70,0.00,,,0.00,WUHU216HW,2013-05-01 13:40:00,
2013-05-01 08:00:00,30.1,19.6,30.37,WSW,248,2.0,2.0,65,0.00,,,0.00,WUHU216HW,2013-05-01 14:00:00,
2013-05-01 08:05:00,30.1,19.6,30.37,WSW,248,2.0,2.0,65,0.00,,,0.00,WUHU216HW,2013-05-01 14:05:00,
2013-05-01 08:10:00,30.1,19.6,30.37,WSW,248,2.0,2.0,65,0.00,,,0.00,WUHU216HW,2013-05-01 14:10:00,
2013-05-01 08:30:00,32.2,20.7,30.38,WSW,248,0.0,0.0,62,0.00,,,0.00,WUHU216HW,2013-05-01 14:30:00,
2013-05-01 08:35:00,32.2,20.7,30.38,WSW,248,0.0,0.0,62,0.00,,,0.00,WUHU216HW,2013-05-01 14:35:00,
2013-05-01 08:40:00,32.2,20.7,30.38,WSW,248,0.0,0.0,62,0.00,,,0.00,WUHU216HW,2013-05-01 14:40:00,
2013-05-01 08:54:00,33.5,21.1,30.39,ESE,113,1.3,1.3,60,0.00,,,0.00,WUHU216HW,2013-05-01 14:54:00,
2013-05-01 08:59:00,33.5,20.7,30.39,SE,135,0.7,1.6,59,0.00,,,0.00,WUHU216HW,2013-05-01 14:59:00,
2013-05-01 09:04:00,33.7,20.8,30.39,SSW,203,0.7,1.8,59,0.00,,,0.00,WUHU216HW,2013-05-01 15:04:00,
2013-05-01 09:09:00,33.8,20.5,30.40,SW,225,0.0,1.8,58,0.00,,,0.00,WUHU216HW,2013-05-01 15:09:00,
2013-05-01 09:14:00,33.8,20.5,30.40,SW,225,1.1,2.5,58,0.00,,,0.00,WUHU216HW,2013-05-01 15:14:00,
2013-05-01 09:19:00,34.0,20.4,30.40,SSE,158,1.1,2.5,57,0.00,,,0.00,WUHU216HW,2013-05-01 15:19:00,
2013-05-01 09:24:00,34.2,20.5,30.40,SE,135,0.0,1.1,57,0.00,,,0.00,WUHU216HW,2013-05-01 15:24:00,
2013-05-01 09:29:00,34.6,20.9,30.40,WNW,293,0.0,1.6,57,0.00,,,0.00,WUHU216HW,2013-05-01 15:29:00,
2013-05-01 09:34:00,35.3,21.6,30.40,SW,225,0.9,1.6,57,0.00,,,0.00,WUHU216HW,2013-05-01 15:34:00,
2013-05-01 09:39:00,36.0,21.8,30.40,SE,135,0.7,1.6,56,0.00,,,0.00,WUHU216HW,2013-05-01 15:39:00,
2013-05-01 09:44:00,36.9,21.8,30.40,WNW,293,1.8,1.8,54,0.00,,,0.00,WUHU216HW,2013-05-01 15:44:00,
2013-05-01 09:49:00,37.3,21.3,30.40,West,270,2.9,2.9,52,0.00,,,0.00,WUHU216HW,2013-05-01 15:49:00,
2013-05-01 09:54:00,37.6,21.5,30.40,West,270,0.9,2.9,52,0.00,,,0.00,WUHU216HW,2013-05-01 15:54:00,
2013-05-01 09:59:00,38.0,20.5,30.40,ESE,113,2.5,2.9,49,0.00,,,0.00,WUHU216HW,2013-05-01 15:59:00,
2013-05-01 10:04:00,38.2,21.2,30.40,SSE,158,1.1,2.9,50,0.00,,,0.00,WUHU216HW,2013-05-01 16:04:00,
2013-05-01 10:09:00,38.9,21.3,30.40,NE,45,3.4,3.4,49,0.00,,,0.00,WUHU216HW,2013-05-01 16:09:00,
2013-05-01 10:14:00,39.2,20.6,30.40,East,90,0.7,4.0,47,0.00,,,0.00,WUHU216HW,2013-05-01 16:14:00,
2013-05-01 10:19:00,39.4,21.2,30.40,NE,45,1.3,4.0,48,0.00,,,0.00,WUHU216HW,2013-05-01 16:19:00,
2013-05-01 10:24:00,40.0,22.2,30.41,NE,45,2.7,2.7,49,0.00,,,0.00,WUHU216HW,2013-05-01 16:24:00,
2013-05-01 10:29:00,40.9,22.1,30.41,East,90,0.4,2.7,47,0.00,,,0.00,WUHU216HW,2013-05-01 16:29:00,
2013-05-01 10:34:00,41.4,21.5,30.41,SSE,158,2.0,5.1,45,0.00,,,0.00,WUHU216HW,2013-05-01 16:34:00,
2013-05-01 10:39:00,41.8,20.3,30.41,SE,135,2.7,5.1,42,0.00,,,0.00,WUHU216HW,2013-05-01 16:39:00,
2013-05-01 10:44:00,42.1,20.1,30.41,SE,135,3.1,4.0,41,0.00,,,0.00,WUHU216HW,2013-05-01 16:44:00,
2013-05-01 10:49:00,42.7,20.0,30.41,SE,135,3.4,3.4,40,0.00,,,0.00,WUHU216HW,2013-05-01 16:49:00,
2013-05-01 10:54:00,43.0,21.4,30.41,SSE,158,3.6,3.8,42,0.00,,,0.00,WUHU216HW,2013-05-01 16:54:00,
2013-05-01 10:59:00,43.4,21.2,30.41,SSW,203,1.6,3.8,41,0.00,,,0.00,WUHU216HW,2013-05-01 16:59:00,
2013-05-01 11:07:00,43.7,21.0,30.42,ESE,113,4.0,4.0,40,0.00,,,0.00,WUHU216HW,2013-05-01 17:07:00,
2013-05-01 11:12:00,43.7,20.4,30.42,NNW,338,3.4,4.0,39,0.00,,,0.00,WUHU216HW,2013-05-01 17:12:00,
2013-05-01 11:17:00,43.6,20.2,30.42,NNW,338,3.6,6.9,39,0.00,,,0.00,WUHU216HW,2013-05-01 17:17:00,
2013-05-01 11:22:00,44.1,20.0,30.42,ESE,113,2.5,6.9,38,0.00,,,0.00,WUHU216HW,2013-05-01 17:22:00,
2013-05-01 11:27:00,44.5,20.3,30.42,SE,135,2.9,6.0,38,0.00,,,0.00,WUHU216HW,2013-05-01 17:27:00,
2013-05-01 11:32:00,45.0,19.4,30.42,SE,135,1.8,5.4,36,0.00,,,0.00,WUHU216HW,2013-05-01 17:32:00,
2013-05-01 11:37:00,45.5,20.6,30.42,SSE,158,6.9,6.9,37,0.00,,,0.00,WUHU216HW,2013-05-01 17:37:00,
2013-05-01 11:42:00,45.9,19.6,30.42,SW,225,1.8,6.9,35,0.00,,,0.00,WUHU216HW,2013-05-01 17:42:00,
2013-05-01 11:47:00,46.1,18.5,30.42,SW,225,8.5,8.5,33,0.00,,,0.00,WUHU216HW,2013-05-01 17:47:00,
2013-05-01 11:52:00,45.5,18.6,30.42,SSW,203,7.2,9.8,34,0.00,,,0.00,WUHU216HW,2013-05-01 17:52:00,
2013-05-01 11:57:00,44.8,17.3,30.42,SW,225,2.7,9.8,33,0.00,,,0.00,WUHU216HW,2013-05-01 17:57:00,
2013-05-01 12:02:00,44.1,17.3,30.42,SW,225,7.4,8.5,34,0.00,,,0.00,WUHU216HW,2013-05-01 18:02:00,
2013-05-01 12:07:00,43.2,17.2,30.42,SSW,203,1.8,8.5,35,0.00,,,0.00,WUHU216HW,2013-05-01 18:07:00,
2013-05-01 12:12:00,43.7,18.3,30.42,East,90,3.4,6.9,36,0.00,,,0.00,WUHU216HW,2013-05-01 18:12:00,
2013-05-01 12:17:00,45.2,19.6,30.42,SSW,203,7.4,8.9,36,0.00,,,0.00,WUHU216HW,2013-05-01 18:17:00,
2013-05-01 12:22:00,46.4,20.1,30.42,South,180,4.5,9.8,35,0.00,,,0.00,WUHU216HW,2013-05-01 18:22:00,
2013-05-01 12:28:00,47.5,20.3,30.41,SSW,203,3.4,9.8,34,0.00,,,0.00,WUHU216HW,2013-05-01 18:28:00,
2013-05-01 12:33:00,47.7,19.2,30.42,WSW,248,6.5,6.5,32,0.00,,,0.00,WUHU216HW,2013-05-01 18:33:00,
2013-05-01 12:37:00,45.7,17.5,30.41,North,0,0.4,6.5,32,0.00,,,0.00,WUHU216HW,2013-05-01 18:37:00,
2013-05-01 12:42:00,45.0,17.5,30.41,SSW,203,5.6,5.6,33,0.00,,,0.00,WUHU216HW,2013-05-01 18:42:00,
2013-05-01 12:48:00,45.9,18.3,30.41,SSW,203,4.7,6.9,33,0.00,,,0.00,WUHU216HW,2013-05-01 18:48:00,
2013-05-01 12:52:00,46.6,18.3,30.41,NW,315,3.6,8.5,32,0.00,,,0.00,WUHU216HW,2013-05-01 18:52:00,
2013-05-01 12:57:00,46.4,18.7,30.41,SSE,158,6.7,8.5,33,0.00,,,0.00,WUHU216HW,2013-05-01 18:57:00,
2013-05-01 13:02:00,47.2,19.4,30.41,East,90,6.9,8.5,33,0.00,,,0.00,WUHU216HW,2013-05-01 19:02:00,
2013-05-01 13:07:00,47.9,20.1,30.41,East,90,3.1,8.5,33,0.00,,,0.00,WUHU216HW,2013-05-01 19:07:00,
2013-05-01 13:12:00,47.9,19.4,30.41,SE,135,4.3,7.2,32,0.00,,,0.00,WUHU216HW,2013-05-01 19:12:00,
2013-05-01 13:17:00,48.4,19.8,30.41,ESE,113,1.6,6.0,32,0.00,,,0.00,WUHU216HW,2013-05-01 19:17:00,
2013-05-01 13:22:00,49.3,21.2,30.41,ESE,113,1.8,6.0,33,0.00,,,0.00,WUHU216HW,2013-05-01 19:22:00,
2013-05-01 13:27:00,49.5,20.1,30.41,ENE,68,3.6,4.5,31,0.00,,,0.00,WUHU216HW,2013-05-01 19:27:00,
2013-05-01 13:32:00,49.5,20.7,30.41,ESE,113,3.6,4.3,32,0.00,,,0.00,WUHU216HW,2013-05-01 19:32:00,
2013-05-01 13:37:00,50.2,20.6,30.41,East,90,3.4,3.6,31,0.00,,,0.00,WUHU216HW,2013-05-01 19:37:00,
2013-05-01 13:43:00,49.3,17.4,30.41,NNE,23,4.0,4.5,28,0.00,,,0.00,WUHU216HW,2013-05-01 19:43:00,
2013-05-01 13:48:00,48.4,18.6,30.41,East,90,1.8,4.5,30,0.00,,,0.00,WUHU216HW,2013-05-01 19:48:00,
2013-05-01 13:53:00,48.6,19.4,30.41,SSW,203,1.6,5.8,31,0.00,,,0.00,WUHU216HW,2013-05-01 19:53:00,
2013-05-01 13:57:00,47.9,18.0,30.41,West,270,4.0,11.9,30,0.00,,,0.00,WUHU216HW,2013-05-01 19:57:00,
2013-05-01 14:03:00,47.5,17.7,30.41,NW,315,2.5,11.9,30,0.00,,,0.00,WUHU216HW,2013-05-01 20:03:00,
2013-05-01 14:08:00,47.7,16.9,30.41,NE,45,3.8,4.7,29,0.00,,,0.00,WUHU216HW,2013-05-01 20:08:00,
2013-05-01 14:12:00,48.4,19.2,30.42,SW,225,3.4,6.0,31,0.00,,,0.00,WUHU216HW,2013-05-01 20:12:00,
2013-05-01 14:17:00,47.0,17.9,30.42,NW,315,4.7,7.6,31,0.00,,,0.00,WUHU216HW,2013-05-01 20:17:00,
2013-05-01 14:23:00,45.7,18.1,30.42,West,270,8.3,9.4,33,0.00,,,0.00,WUHU216HW,2013-05-01 20:23:00,
2013-05-01 14:27:00,45.7,17.5,30.42,ENE,68,4.5,9.4,32,0.00,,,0.00,WUHU216HW,2013-05-01 20:27:00,
2013-05-01 14:33:00,45.9,17.6,30.42,NE,45,6.5,7.2,32,0.00,,,0.00,WUHU216HW,2013-05-01 20:33:00,
2013-05-01 14:38:00,46.3,17.9,30.41,NE,45,3.4,6.7,32,0.00,,,0.00,WUHU216HW,2013-05-01 20:38:00,
2013-05-01 14:43:00,47.0,18.5,30.41,NNE,23,0.4,6.7,32,0.00,,,0.00,WUHU216HW,2013-05-01 20:43:00,
2013-05-01 14:48:00,47.9,18.7,30.41,NNW,338,1.6,5.8,31,0.00,,,0.00,WUHU216HW,2013-05-01 20:48:00,
2013-05-01 14:53:00,48.8,17.8,30.41,SE,135,0.7,4.7,29,0.00,,,0.00,WUHU216HW,2013-05-01 20:53:00,
2013-05-01 14:58:00,49.3,19.3,30.41,SSE,158,1.8,3.8,30,0.00,,,0.00,WUHU216HW,2013-05-01 20:58:00,
2013-05-01 15:03:00,49.9,17.8,30.41,WSW,248,4.7,5.8,28,0.00,,,0.00,WUHU216HW,2013-05-01 21:03:00,
2013-05-01 15:08:00,50.0,18.0,30.41,ESE,113,2.9,6.9,28,0.00,,,0.00,WUHU216HW,2013-05-01 21:08:00,
2013-05-01 15:13:00,50.2,19.1,30.41,SE,135,3.8,6.9,29,0.00,,,0.00,WUHU216HW,2013-05-01 21:13:00,
2013-05-01 15:18:00,50.0,18.9,30.41,WSW,248,0.7,4.5,29,0.00,,,0.00,WUHU216HW,2013-05-01 21:18:00,
2013-05-01 15:23:00,50.0,18.9,30.41,SW,225,2.2,3.6,29,0.00,,,0.00,WUHU216HW,2013-05-01 21:23:00,
2013-05-01 15:28:00,50.6,18.5,30.41,SW,225,1.1,3.6,28,0.00,,,0.00,WUHU216HW,2013-05-01 21:28:00,
2013-05-01 15:33:00,51.7,19.4,30.40,SE,135,2.5,4.7,28,0.00,,,0.00,WUHU216HW,2013-05-01 21:33:00,
2013-05-01 15:38:00,52.7,17.5,30.40,SE,135,6.9,6.9,25,0.00,,,0.00,WUHU216HW,2013-05-01 21:38:00,
2013-05-01 15:43:00,52.2,17.0,30.41,East,90,8.5,8.5,25,0.00,,,0.00,WUHU216HW,2013-05-01 21:43:00,
2013-05-01 15:48:00,51.1,18.0,30.41,ESE,113,0.7,8.5,27,0.00,,,0.00,WUHU216HW,2013-05-01 21:48:00,
2013-05-01 15:53:00,50.9,16.0,30.41,NNW,338,2.2,6.5,25,0.00,,,0.00,WUHU216HW,2013-05-01 21:53:00,
2013-05-01 15:58:00,51.1,15.2,30.41,WNW,293,8.7,8.7,24,0.00,,,0.00,WUHU216HW,2013-05-01 21:58:00,
2013-05-01 16:03:00,50.2,14.4,30.41,SW,225,5.1,9.2,24,0.00,,,0.00,WUHU216HW,2013-05-01 22:03:00,
2013-05-01 16:08:00,49.7,15.0,30.41,North,0,6.0,9.2,25,0.00,,,0.00,WUHU216HW,2013-05-01 22:08:00,
2013-05-01 16:13:00,49.7,14.0,30.41,NNW,338,4.0,7.2,24,0.00,,,0.00,WUHU216HW,2013-05-01 22:13:00,
2013-05-01 16:18:00,49.3,13.7,30.41,NNW,338,4.9,7.6,24,0.00,,,0.00,WUHU216HW,2013-05-01 22:18:00,
2013-05-01 16:23:00,50.0,15.2,30.41,North,0,2.0,7.6,25,0.00,,,0.00,WUHU216HW,2013-05-01 22:23:00,
2013-05-01 16:28:00,51.1,15.2,30.41,WNW,293,4.3,4.7,24,0.00,,,0.00,WUHU216HW,2013-05-01 22:28:00,
2013-05-01 16:33:00,51.3,15.4,30.41,West,270,3.4,6.9,24,0.00,,,0.00,WUHU216HW,2013-05-01 22:33:00,
2013-05-01 16:38:00,50.9,14.1,30.41,NE,45,4.7,6.9,23,0.00,,,0.00,WUHU216HW,2013-05-01 22:38:00,
2013-05-01 16:43:00,50.0,12.4,30.41,North,0,5.1,5.4,22,0.00,,,0.00,WUHU216HW,2013-05-01 22:43:00,
2013-05-01 16:48:00,49.5,13.9,30.41,WSW,248,1.6,8.9,24,0.00,,,0.00,WUHU216HW,2013-05-01 22:48:00,
2013-05-01 16:53:00,50.4,13.7,30.41,NNW,338,7.2,10.5,23,0.00,,,0.00,WUHU216HW,2013-05-01 22:53:00,
2013-05-01 16:58:00,51.7,12.9,30.41,WNW,293,5.8,10.5,21,0.00,,,0.00,WUHU216HW,2013-05-01 22:58:00,
2013-05-01 17:03:00,52.7,13.8,30.41,West,270,5.4,8.9,21,0.00,,,0.00,WUHU216HW,2013-05-01 23:03:00,
2013-05-01 17:08:00,54.0,13.9,30.41,NNW,338,11.4,11.4,20,0.00,,,0.00,WUHU216HW,2013-05-01 23:08:00,
2013-05-01 17:13:00,52.2,12.3,30.41,NW,315,15.9,15.9,20,0.00,,,0.00,WUHU216HW,2013-05-01 23:13:00,
2013-05-01 17:18:00,51.7,12.9,30.42,West,270,6.9,15.9,21,0.00,,,0.00,WUHU216HW,2013-05-01 23:18:00,
2013-05-01 17:23:00,52.4,13.4,30.42,WNW,293,6.9,11.4,21,0.00,,,0.00,WUHU216HW,2013-05-01 23:23:00,
2013-05-01 17:28:00,52.6,13.6,30.42,WSW,248,5.8,10.5,21,0.00,,,0.00,WUHU216HW,2013-05-01 23:28:00,
2013-05-01 17:33:00,54.4,14.1,30.42,WNW,293,9.8,15.4,20,0.00,,,0.00,WUHU216HW,2013-05-01 23:33:00,
2013-05-01 17:38:00,53.6,14.5,30.43,WSW,248,6.7,15.4,21,0.00,,,0.00,WUHU216HW,2013-05-01 23:38:00,
2013-05-01 17:42:00,52.2,13.3,30.42,WNW,293,7.6,8.7,21,0.00,,,0.00,WUHU216HW,2013-05-01 23:42:00,
2013-05-01 17:47:00,52.2,14.2,30.43,West,270,11.4,11.4,22,0.00,,,0.00,WUHU216HW,2013-05-01 23:47:00,
2013-05-01 17:52:00,52.6,12.6,30.43,NW,315,7.4,11.4,20,0.00,,,0.00,WUHU216HW,2013-05-01 23:52:00,
2013-05-01 17:57:00,53.1,13.1,30.43,NW,315,4.0,9.2,20,0.00,,,0.00,WUHU216HW,2013-05-01 23:57:00,
2013-05-01 18:03:00,54.2,14.0,30.43,North,0,3.6,6.3,20,0.00,,,0.00,WUHU216HW,2013-05-02 00:03:00,
2013-05-01 18:08:00,53.3,14.1,30.43,West,270,0.0,6.3,21,0.00,,,0.00,WUHU216HW,2013-05-02 00:08:00,
2013-05-01 18:13:00,51.5,12.7,30.43,North,0,2.7,5.4,21,0.00,,,0.00,WUHU216HW,2013-05-02 00:13:00,
2013-05-01 18:18:00,49.9,12.3,30.43,NNE,23,4.3,6.3,22,0.00,,,0.00,WUHU216HW,2013-05-02 00:18:00,
2013-05-01 18:23:00,49.3,12.8,30.43,NW,315,3.8,6.3,23,0.00,,,0.00,WUHU216HW,2013-05-02 00:23:00,
2013-05-01 18:28:00,49.7,13.1,30.43,WNW,293,4.5,5.6,23,0.00,,,0.00,WUHU216HW,2013-05-02 00:28:00,
2013-05-01 18:33:00,51.1,13.3,30.43,NNW,338,6.7,8.3,22,0.00,,,0.00,WUHU216HW,2013-05-02 00:33:00,
2013-05-01 18:38:00,52.6,14.5,30.43,North,0,3.6,8.3,22,0.00,,,0.00,WUHU216HW,2013-05-02 00:38:00,
2013-05-01 18:43:00,53.3,14.1,30.43,NW,315,7.8,7.8,21,0.00,,,0.00,WUHU216HW,2013-05-02 00:43:00,
2013-05-01 18:48:00,53.8,13.7,30.43,NNE,23,8.3,8.3,20,0.00,,,0.00,WUHU216HW,2013-05-02 00:48:00,
2013-05-01 18:53:00,53.6,13.5,30.43,NW,315,4.3,8.3,20,0.00,,,0.00,WUHU216HW,2013-05-02 00:53:00,
2013-05-01 18:58:00,52.9,13.9,30.43,North,0,2.2,7.2,21,0.00,,,0.00,WUHU216HW,2013-05-02 00:58:00,
2013-05-01 19:03:00,52.9,13.9,30.44,NW,315,4.7,7.2,21,0.00,,,0.00,WUHU216HW,2013-05-02 01:03:00,
2013-05-01 19:08:00,52.7,13.8,30.44,NNW,338,3.6,6.3,21,0.00,,,0.00,WUHU216HW,2013-05-02 01:08:00,
2013-05-01 19:13:00,52.9,13.9,30.44,NNE,23,3.4,5.4,21,0.00,,,0.00,WUHU216HW,2013-05-02 01:13:00,
2013-05-01 19:18:00,54.4,15.1,30.44,NNW,338,1.8,5.1,21,0.00,,,0.00,WUHU216HW,2013-05-02 01:18:00,
2013-05-01 19:23:00,54.0,14.8,30.44,North,0,2.2,4.0,21,0.00,,,0.00,WUHU216HW,2013-05-02 01:23:00,
2013-05-01 19:28:00,52.2,14.2,30.44,NNW,338,2.5,5.8,22,0.00,,,0.00,WUHU216HW,2013-05-02 01:28:00,
2013-05-01 19:33:00,51.1,13.3,30.44,North,0,0.7,5.8,22,0.00,,,0.00,WUHU216HW,2013-05-02 01:33:00,
2013-05-01 19:38:00,49.7,14.0,30.44,North,0,1.8,3.4,24,0.00,,,0.00,WUHU216HW,2013-05-02 01:38:00,
2013-05-01 19:43:00,48.2,13.7,30.44,North,0,2.9,4.3,25,0.00,,,0.00,WUHU216HW,2013-05-02 01:43:00,
2013-05-01 19:48:00,47.2,15.6,30.45,NNW,338,4.7,7.2,28,0.00,,,0.00,WUHU216HW,2013-05-02 01:48:00,
2013-05-01 19:53:00,46.8,15.2,30.45,NE,45,4.0,7.2,28,0.00,,,0.00,WUHU216HW,2013-05-02 01:53:00,
2013-05-01 19:58:00,46.4,15.9,30.45,North,0,3.6,5.4,29,0.00,,,0.00,WUHU216HW,2013-05-02 01:58:00,
2013-05-01 20:03:00,46.3,15.7,30.45,North,0,4.7,4.7,29,0.00,,,0.00,WUHU216HW,2013-05-02 02:03:00,
2013-05-01 20:08:00,46.1,15.5,30.45,North,0,4.5,4.7,29,0.00,,,0.00,WUHU216HW,2013-05-02 02:08:00,
2013-05-01 20:13:00,45.7,15.2,30.45,NNE,23,2.2,4.7,29,0.00,,,0.00,WUHU216HW,2013-05-02 02:13:00,
2013-05-01 20:18:00,45.2,15.6,30.45,North,0,0.4,3.4,30,0.00,,,0.00,WUHU216HW,2013-05-02 02:18:00,
2013-05-01 20:23:00,44.6,15.8,30.45,North,0,1.6,2.5,31,0.00,,,0.00,WUHU216HW,2013-05-02 02:23:00,
2013-05-01 20:28:00,44.3,15.5,30.45,NNW,338,1.6,2.0,31,0.00,,,0.00,WUHU216HW,2013-05-02 02:28:00,
2013-05-01 20:33:00,43.6,14.1,30.46,NNW,338,0.0,1.8,30,0.00,,,0.00,WUHU216HW,2013-05-02 02:33:00,
2013-05-01 20:38:00,43.0,13.7,30.46,North,0,0.9,1.6,30,0.00,,,0.00,WUHU216HW,2013-05-02 02:38:00,
2013-05-01 20:43:00,42.1,13.6,30.46,North,0,0.0,1.6,31,0.00,,,0.00,WUHU216HW,2013-05-02 02:43:00,
2013-05-01 20:48:00,41.4,13.7,30.47,NNW,338,0.4,1.6,32,0.00,,,0.00,WUHU216HW,2013-05-02 02:48:00,
2013-05-01 20:53:00,41.0,13.3,30.47,North,0,0.9,1.8,32,0.00,,,0.00,WUHU216HW,2013-05-02 02:53:00,
2013-05-01 20:58:00,40.7,13.1,30.47,NE,45,1.8,1.8,32,0.00,,,0.00,WUHU216HW,2013-05-02 02:58:00,
2013-05-01 21:03:00,39.8,12.9,30.47,NE,45,3.1,4.3,33,0.00,,,0.00,WUHU216HW,2013-05-02 03:03:00,
2013-05-01 21:08:00,39.2,12.4,30.47,NE,45,2.9,4.3,33,0.00,,,0.00,WUHU216HW,2013-05-02 03:08:00,
2013-05-01 21:13:00,38.7,13.2,30.48,NE,45,1.8,3.4,35,0.00,,,0.00,WUHU216HW,2013-05-02 03:13:00,
2013-05-01 21:18:00,38.5,13.1,30.48,ENE,68,2.7,4.0,35,0.00,,,0.00,WUHU216HW,2013-05-02 03:18:00,
2013-05-01 21:23:00,38.0,13.2,30.48,ENE,68,1.8,4.9,36,0.00,,,0.00,WUHU216HW,2013-05-02 03:23:00,
2013-05-01 21:28:00,37.6,12.9,30.48,NNE,23,1.3,4.9,36,0.00,,,0.00,WUHU216HW,2013-05-02 03:28:00,
2013-05-01 21:33:00,37.3,12.5,30.48,NE,45,3.6,4.0,36,0.00,,,0.00,WUHU216HW,2013-05-02 03:33:00,
2013-05-01 21:38:00,36.9,12.9,30.48,ENE,68,3.4,4.7,37,0.00,,,0.00,WUHU216HW,2013-05-02 03:38:00,
2013-05-01 21:43:00,36.5,13.2,30.49,NE,45,3.1,4.7,38,0.00,,,0.00,WUHU216HW,2013-05-02 03:43:00,
2013-05-01 21:48:00,36.4,13.1,30.49,NE,45,1.1,4.7,38,0.00,,,0.00,WUHU216HW,2013-05-02 03:48:00,
2013-05-01 21:53:00,36.0,13.3,30.49,NNE,23,3.4,3.4,39,0.00,,,0.00,WUHU216HW,2013-05-02 03:53:00,
2013-05-01 21:58:00,35.6,12.4,30.50,North,0,0.0,3.4,38,0.00,,,0.00,WUHU216HW,2013-05-02 03:58:00,
2013-05-01 22:01:00,35.3,12.7,30.50,NE,45,1.6,3.6,39,0.00,,,0.00,WUHU216HW,2013-05-02 04:01:00,
2013-05-01 22:06:00,35.1,13.7,30.50,NNE,23,2.7,5.4,41,0.00,,,0.00,WUHU216HW,2013-05-02 04:06:00,
2013-05-01 22:11:00,34.9,13.6,30.50,ENE,68,4.3,5.8,41,0.00,,,0.00,WUHU216HW,2013-05-02 04:11:00,
2013-05-01 22:16:00,34.9,13.6,30.50,ENE,68,3.6,5.8,41,0.00,,,0.00,WUHU216HW,2013-05-02 04:16:00,
2013-05-01 22:21:00,34.7,13.9,30.50,ENE,68,4.5,5.1,42,0.00,,,0.00,WUHU216HW,2013-05-02 04:21:00,
2013-05-01 22:26:00,34.6,13.8,30.50,ENE,68,5.1,5.1,42,0.00,,,0.00,WUHU216HW,2013-05-02 04:26:00,
2013-05-01 22:31:00,34.2,12.9,30.50,ENE,68,4.9,5.1,41,0.00,,,0.00,WUHU216HW,2013-05-02 04:31:00,
2013-05-01 22:36:00,34.2,13.4,30.50,NE,45,4.7,5.8,42,0.00,,,0.00,WUHU216HW,2013-05-02 04:36:00,
2013-05-01 22:41:00,34.0,13.2,30.50,ENE,68,6.7,6.7,42,0.00,,,0.00,WUHU216HW,2013-05-02 04:41:00,
2013-05-01 22:46:00,34.0,13.2,30.50,ENE,68,5.4,6.7,42,0.00,,,0.00,WUHU216HW,2013-05-02 04:46:00,
2013-05-01 22:51:00,33.7,12.9,30.50,SE,135,2.5,6.3,42,0.00,,,0.00,WUHU216HW,2013-05-02 04:51:00,
2013-05-01 22:56:00,32.9,11.8,30.50,ESE,113,2.2,4.3,41,0.00,,,0.00,WUHU216HW,2013-05-02 04:56:00,
2013-05-01 23:01:00,32.0,11.0,30.50,ESE,113,0.9,2.2,41,0.00,,,0.00,WUHU216HW,2013-05-02 05:01:00,
2013-05-01 23:06:00,31.7,11.2,30.50,East,90,1.6,2.0,42,0.00,,,0.00,WUHU216HW,2013-05-02 05:06:00,
2013-05-01 23:11:00,31.3,10.8,30.50,ENE,68,1.1,1.6,42,0.00,,,0.00,WUHU216HW,2013-05-02 05:11:00,
2013-05-01 23:16:00,31.1,12.2,30.50,NE,45,4.7,4.7,45,0.00,,,0.00,WUHU216HW,2013-05-02 05:16:00,
2013-05-01 23:21:00,31.3,11.8,30.50,NNE,23,1.8,4.7,44,0.00,,,0.00,WUHU216HW,2013-05-02 05:21:00,
2013-05-01 23:26:00,31.3,11.8,30.51,NNE,23,0.0,4.0,44,0.00,,,0.00,WUHU216HW,2013-05-02 05:26:00,
2013-05-01 23:31:00,31.3,12.3,30.51,North,0,1.1,1.3,45,0.00,,,0.00,WUHU216HW,2013-05-02 05:31:00,
2013-05-01 23:36:00,31.1,12.2,30.51,ENE,68,1.8,2.7,45,0.00,,,0.00,WUHU216HW,2013-05-02 05:36:00,
2013-05-01 23:41:00,31.3,12.8,30.51,NE,45,3.4,4.7,46,0.00,,,0.00,WUHU216HW,2013-05-02 05:41:00,
2013-05-01 23:46:00,31.5,13.0,30.51,ESE,113,2.5,4.7,46,0.00,,,0.00,WUHU216HW,2013-05-02 05:46:00,
2013-05-01 23:51:00,31.5,13.0,30.51,NE,45,2.9,3.4,46,0.00,,,0.00,WUHU216HW,2013-05-02 05:51:00,
2013-05-01 23:56:00,31.1,12.2,30.51,ENE,68,3.4,3.4,45,0.00,,,0.00,WUHU216HW,2013-05-02 05:56:00,